Miscellaneous Local Product
Issued by NWS North Platte, NE

Home | Current Version | Previous Version | Text Only | Print | Product List | Glossary On
Versions: 1 2 3 4 5 6 7 8 9 10 11 12 13 14 15 16 17 18 19 20 21 22 23 24 25 26 27 28 29 30 31 32 33 34 35 36 37 38 39 40 41 42 43 44 45 46 47 48 49 50
393
AXUS43 KLBF 140210
MISLBF


WESTERN AND NORTH CENTRAL NEBRASKA HOURLY WEATHER ROUNDUP
NATIONAL WEATHER SERVICE NORTH PLATTE NE
800 PM CST WED DEC 13 2017

NOTE: "FAIR" INDICATES FEW OR NO CLOUDS BELOW 12,000 FEET WITH NO
SIGNIFICANT WEATHER AND/OR OBSTRUCTIONS TO VISIBILITY.

NOTE: STATIONS NOT REPORTING VARIABLES SUCH AS SKY/WEATHER OR
PRESSURE ARE PROVIDED BY RAWS AND APRS NETWORKS AND ARE NOT UNDER
NATIONAL WEATHER SERVICE QUALITY CONTROL.

...OBSERVATIONS IN AND NEAR THE EASTERN PANHANDLE OF NEBRASKA...

CITY           SKY/WX    TMP DP  RH WIND       PRES   REMARKS
PINE RIDGE     PTCLDY    38  24  57 N13G20    30.07R WCI  30
GORDON         FAIR      37  24  61 N14G20    30.05R WCI  28
CHADRON        CLOUDY    34  22  61 CALM      30.08R
ALLIANCE       CLOUDY    37  20  50 N13       30.05R WCI  29
SIDNEY         PTCLDY    39  15  37 N16       30.05R WCI  30
CRESCENT LAKE    N/A     35  20  54 N7          N/A  WCI  29
$$

...OBSERVATIONS IN NORTHERN NEBRASKA AND FAR SOUTHERN SOUTH DAKOTA...

CITY           SKY/WX    TMP DP  RH WIND       PRES   REMARKS
WINNER         FAIR      33  25  72 N6        30.02R WCI  28
VALENTINE      CLOUDY    40  21  46 NW15      30.01R WCI  32
THEDFORD       CLOUDY    39  24  54 NW14      30.01R WCI  31
AINSWORTH      PTCLDY    38  23  56 N10       29.98S WCI  31
O`NEILL        CLOUDY    35  28  75 N15       29.98R WCI  25
ORD            PTCLDY    37  25  61 NW12      29.95R WCI  29
BROKEN BOW     CLOUDY    40  23  50 NW14      29.97R WCI  32
VALENTINE NWR    N/A     36  20  51 N9          N/A  WCI  29
HALSEY           N/A     38  22  53 NW7         N/A  WCI  33
BUTTE            N/A     33  26  77 NW12        N/A  WCI  24
CHAMBERS         N/A     35  25  68 NE5         N/A  WCI  31
EWING            N/A     35  27  73 N12G20      N/A  WCI  27
$$

...OBSERVATIONS IN SOUTHWEST NEBRASKA AND FAR NORTHEAST COLORADO...

CITY           SKY/WX    TMP DP  RH WIND       PRES   REMARKS
WRAY           CLOUDY    41  14  33 CALM      30.05R
HOLYOKE        FAIR      41  18  38 N13       30.03S
IMPERIAL       CLOUDY    28  15  58 N8        30.03R WCI  20
OGALLALA       CLOUDY    37  21  52 N5        30.04R WCI  34
NORTH PLATTE   PTCLDY    38  22  52 N9        30.01R WCI  31
MCCOOK         CLOUDY    32  18  56 NW12      30.02R WCI  23
LEXINGTON      CLOUDY    34  22  61 NW7       29.99R WCI  28
STAPLETON        N/A     34  22  61 CALM        N/A
GOTHENBURG       N/A     40  22  47 NW5         N/A
CALLAWAY         N/A     37  24  60 N7          N/A  WCI  31
$$

...OBSERVATIONS IN CENTRAL LINCOLN COUNTY AREA...

CITY           SKY/WX    TMP DP  RH WIND       PRES   REMARKS
N.P. AIRPORT   PTCLDY    38  22  52 N9        30.01R WCI  31
N.P. DOWNTOWN    N/A     38  24  56 CALM        N/A
N.P. SOUTHEAST   N/A     38  22  53 NW3         N/A
N.P. HILLCREST   N/A     37  23  58 NW9         N/A  WCI  30
$$

...SOME OBSERVATIONS FROM AROUND THE REGION...

CITY           SKY/WX    TMP DP  RH WIND       PRES   REMARKS
DENVER         CLOUDY    39  12  33 NE7       30.06R WCI  34
GRAND JUNCTION CLOUDY    37  15  40 NE3       30.03S
LARAMIE        CLOUDY    31  21  66 N12G22    30.08R WCI  22
CHEYENNE       CLOUDY    37  14  38 N8        30.07R WCI  31
CASPER         LGT SNOW  31  29  92 N7        30.16R FOG     WCI  24
BISMARCK       CLOUDY    34  24  67 NW8       30.01R WCI  27
RAPID CITY     CLOUDY    39  24  55 NW20      30.06R WCI  29
PIERRE         CLOUDY    33  26  75 N9        30.01R WCI  25
SIOUX FALLS    FLURRIES  34  30  85 N17       29.93R WCI  23
OMAHA          CLOUDY    41  24  51 NW23G35   29.91S
GRAND ISLAND   CLOUDY    32  24  72 W7        29.96R WCI  26
SCOTTSBLUFF    MOCLDY    40  18  41 NW12      30.08R WCI  33
KANSAS CITY    CLEAR     43  29  57 N20G26    29.89R
HILL CITY      CLOUDY    31  16  54 NW8       30.01R WCI  23
WICHITA        PTCLDY    46  24  42 N7        29.94R
DODGE CITY     CLOUDY    41  15  35 N9        30.00R
OKLAHOMA CITY  PTCLDY    50  20  30 NW5       29.91S
DALLAS         CLEAR     58  27  30 SW7       29.87R
AMARILLO       CLEAR     40  15  36 N6        30.01R
$$




USA.gov is the U.S. government's official web portal to all federal, state and local government web resources and services.